• In Deutschland
  • Länderverzeichnis
  • Für 7 Tage
  • Wassertemperatur
  • Satellitenkarten
  • Wetterkarte
  • Widgets
  • user-avatar
    Anmelden

    Stündliche Wetter Larne

    Heute, 16 Januar, Dienstag

    Zeit Temperatur Niederschläge Wind Luftdruck Luftfeuchtigkeit
    00:00 0°C° 0 mm 9 m/S 736 mmHg 79%
    01:00 0°C° 0,2 mm 9 m/S 736 mmHg 77%
    02:00 0°C° 0,2 mm 10 m/S 736 mmHg 75%
    03:00 0°C° 0,2 mm 10 m/S 737 mmHg 74%
    04:00 -1°C° 0,3 mm 11 m/S 737 mmHg 74%
    05:00 -1°C° 0,3 mm 11 m/S 737 mmHg 74%
    06:00 -1°C° 0 mm 9 m/S 736 mmHg 80%
    07:00 -1°C° 0,3 mm 9 m/S 736 mmHg 80%
    08:00 -2°C° 0,3 mm 10 m/S 736 mmHg 80%
    09:00 0°C° 0,3 mm 10 m/S 736 mmHg 80%
    10:00 -1°C° 0,4 mm 11 m/S 736 mmHg 78%
    11:00 -1°C° 0,4 mm 11 m/S 736 mmHg 77%
    12:00 -1°C° 0,4 mm 11 m/S 736 mmHg 76%
    13:00 -2°C° 0,4 mm 11 m/S 736 mmHg 77%
    14:00 -2°C° 0,4 mm 11 m/S 736 mmHg 77%
    15:00 -2°C° 0,4 mm 11 m/S 735 mmHg 78%
    16:00 -3°C° 0,5 mm 11 m/S 735 mmHg 79%
    17:00 -3°C° 0,5 mm 11 m/S 735 mmHg 80%
    18:00 -3°C° 0,5 mm 11 m/S 735 mmHg 80%
    19:00 -3°C° 0,3 mm 11 m/S 735 mmHg 79%
    20:00 -4°C° 0,3 mm 11 m/S 736 mmHg 78%
    21:00 -4°C° 0,3 mm 11 m/S 736 mmHg 77%
    22:00 -3°C° 0,3 mm 11 m/S 736 mmHg 78%
    23:00 -3°C° 0,3 mm 11 m/S 737 mmHg 78%

    Morgen, 17 Januar, Mittwoch

    Zeit Temperatur Niederschläge Wind Luftdruck Luftfeuchtigkeit
    00:00 -2°C° 0,3 mm 12 m/S 737 mmHg 79%
    01:00 -2°C° 0,4 mm 12 m/S 738 mmHg 78%
    02:00 -1°C° 0,4 mm 12 m/S 739 mmHg 76%
    03:00 -1°C° 0,4 mm 13 m/S 740 mmHg 75%
    04:00 -1°C° 0,2 mm 12 m/S 741 mmHg 77%
    05:00 -1°C° 0,2 mm 11 m/S 742 mmHg 78%
    06:00 -1°C° 0,2 mm 11 m/S 743 mmHg 80%
    07:00 -1°C° 0,6 mm 11 m/S 744 mmHg 80%
    08:00 -2°C° 0,6 mm 12 m/S 745 mmHg 81%
    09:00 -2°C° 0,6 mm 12 m/S 745 mmHg 81%
    10:00 -2°C° 0,1 mm 12 m/S 746 mmHg 81%
    11:00 -1°C° 0,1 mm 11 m/S 747 mmHg 81%
    12:00 -1°C° 0,1 mm 11 m/S 747 mmHg 81%
    13:00 0°C° 0,1 mm 10 m/S 747 mmHg 82%
    14:00 0°C° 0,1 mm 9 m/S 747 mmHg 83%
    15:00 0°C° 0,1 mm 9 m/S 747 mmHg 85%
    16:00 0°C° 0,3 mm 8 m/S 746 mmHg 87%
    17:00 0°C° 0,3 mm 7 m/S 746 mmHg 90%
    18:00 -1°C° 0,3 mm 7 m/S 745 mmHg 92%
    19:00 -1°C° 1,3 mm 6 m/S 743 mmHg 94%
    20:00 -1°C° 1,3 mm 6 m/S 740 mmHg 95%
    21:00 -1°C° 1,3 mm 6 m/S 738 mmHg 97%
    22:00 0°C° 1,4 mm 7 m/S 737 mmHg 97%
    23:00 0°C° 1,4 mm 8 m/S 737 mmHg 97%

    übermorgen, 18 Januar, Donnerstag

    Zeit Temperatur Niederschläge Wind Luftdruck Luftfeuchtigkeit
    00:00 0°C° 1,4 mm 8 m/S 736 mmHg 98%
    01:00 0°C° 0,3 mm 8 m/S 737 mmHg 97%
    02:00 0°C° 0,3 mm 8 m/S 739 mmHg 96%
    03:00 0°C° 0,3 mm 7 m/S 740 mmHg 95%
    04:00 0°C° 0,3 mm 7 m/S 740 mmHg 94%
    05:00 0°C° 0,3 mm 7 m/S 741 mmHg 93%
    06:00 -1°C° 0,3 mm 7 m/S 741 mmHg 92%
    07:00 -1°C° 0,3 mm 7 m/S 742 mmHg 91%
    08:00 -1°C° 0,3 mm 7 m/S 742 mmHg 90%
    09:00 -1°C° 0,3 mm 7 m/S 742 mmHg 90%
    10:00 0°C° 0,1 mm 7 m/S 743 mmHg 89%
    11:00 0°C° 0,1 mm 7 m/S 743 mmHg 88%
    12:00 0°C° 0,1 mm 7 m/S 744 mmHg 87%
    13:00 0°C° 0,1 mm 7 m/S 744 mmHg 86%
    14:00 0°C° 0,1 mm 7 m/S 744 mmHg 85%
    15:00 0°C° 0,1 mm 7 m/S 744 mmHg 84%
    16:00 -1°C° 0,1 mm 7 m/S 744 mmHg 84%
    17:00 -1°C° 0,1 mm 7 m/S 745 mmHg 85%
    18:00 -1°C° 0,1 mm 7 m/S 745 mmHg 85%
    19:00 -1°C° 0,1 mm 7 m/S 745 mmHg 85%
    20:00 -2°C° 0,1 mm 7 m/S 745 mmHg 85%
    21:00 -2°C° 0,1 mm 8 m/S 745 mmHg 85%
    22:00 -2°C° 0,2 mm 8 m/S 745 mmHg 84%
    23:00 -2°C° 0,2 mm 8 m/S 745 mmHg 84%

    19 Januar, Freitag

    Zeit Temperatur Niederschläge Wind Luftdruck Luftfeuchtigkeit
    00:00 -2°C° 0,2 mm 8 m/S 745 mmHg 84%
    01:00 -2°C° 0,2 mm 8 m/S 745 mmHg 83%
    02:00 -2°C° 0,2 mm 8 m/S 744 mmHg 82%
    03:00 -2°C° 0,2 mm 8 m/S 744 mmHg 81%
    04:00 -2°C° 0,1 mm 8 m/S 744 mmHg 83%
    05:00 -2°C° 0,1 mm 8 m/S 744 mmHg 85%
    06:00 -2°C° 0,1 mm 8 m/S 744 mmHg 86%
    07:00 -2°C° 0,3 mm 8 m/S 744 mmHg 85%
    08:00 -1°C° 0,3 mm 8 m/S 744 mmHg 83%
    09:00 -1°C° 0,3 mm 9 m/S 745 mmHg 82%
    10:00 -1°C° 0,2 mm 9 m/S 745 mmHg 81%
    11:00 -1°C° 0,2 mm 9 m/S 745 mmHg 81%
    12:00 -1°C° 0,2 mm 9 m/S 746 mmHg 80%
    13:00 -1°C° 0,1 mm 9 m/S 746 mmHg 80%
    14:00 0°C° 0,1 mm 8 m/S 746 mmHg 80%
    15:00 0°C° 0,1 mm 8 m/S 746 mmHg 79%
    16:00 0°C° 0,2 mm 8 m/S 746 mmHg 80%
    17:00 -1°C° 0,2 mm 8 m/S 746 mmHg 80%
    18:00 -1°C° 0,2 mm 7 m/S 747 mmHg 80%
    19:00 -1°C° 0,2 mm 7 m/S 747 mmHg 80%
    20:00 -1°C° 0,2 mm 7 m/S 747 mmHg 79%
    21:00 -1°C° 0,2 mm 8 m/S 747 mmHg 78%
    22:00 -1°C° 0,2 mm 8 m/S 748 mmHg 78%
    23:00 -1°C° 0,2 mm 8 m/S 748 mmHg 79%

    20 Januar, Samstag

    Zeit Temperatur Niederschläge Wind Luftdruck Luftfeuchtigkeit
    00:00 0°C° 0,2 mm 9 m/S 748 mmHg 79%
    01:00 0°C° 0,1 mm 9 m/S 749 mmHg 78%
    02:00 0°C° 0,1 mm 9 m/S 750 mmHg 78%
    03:00 0°C° 0,1 mm 9 m/S 750 mmHg 77%
    04:00 0°C° 0 mm 8 m/S 751 mmHg 78%
    05:00 -1°C° 0 mm 7 m/S 751 mmHg 79%
    06:00 -1°C° 0 mm 7 m/S 752 mmHg 81%
    07:00 -1°C° 0 mm 6 m/S 753 mmHg 81%
    08:00 -1°C° 0 mm 5 m/S 753 mmHg 82%
    09:00 -1°C° 0 mm 4 m/S 754 mmHg 83%
    10:00 0°C° 0 mm 4 m/S 754 mmHg 84%
    11:00 +1°C° 0 mm 3 m/S 754 mmHg 85%
    12:00 +2°C° 0 mm 3 m/S 755 mmHg 86%
    13:00 +3°C° 0 mm 2 m/S 755 mmHg 86%
    14:00 +3°C° 0 mm 2 m/S 754 mmHg 87%
    15:00 +3°C° 0 mm 2 m/S 754 mmHg 88%
    16:00 +3°C° 0 mm 1 m/S 755 mmHg 88%
    17:00 +3°C° 0 mm 1 m/S 755 mmHg 88%
    18:00 +2°C° 0 mm 1 m/S 755 mmHg 88%
    19:00 +1°C° 0 mm 2 m/S 755 mmHg 88%
    20:00 +1°C° 0 mm 2 m/S 756 mmHg 88%
    21:00 +2°C° 0 mm 2 m/S 756 mmHg 88%
    22:00 +1°C° 0 mm 3 m/S 756 mmHg 88%
    23:00 +1°C° 0 mm 3 m/S 756 mmHg 88%

    21 Januar, Sonntag

    Zeit Temperatur Niederschläge Wind Luftdruck Luftfeuchtigkeit
    00:00 +1°C° 0 mm 3 m/S 756 mmHg 88%
    01:00 0°C° 0,1 mm 4 m/S 756 mmHg 89%
    02:00 +1°C° 0,1 mm 4 m/S 756 mmHg 90%
    03:00 +1°C° 0,1 mm 5 m/S 756 mmHg 90%
    04:00 +1°C° 0,1 mm 5 m/S 756 mmHg 92%
    05:00 +1°C° 0,1 mm 6 m/S 755 mmHg 93%
    06:00 +2°C° 0,1 mm 6 m/S 755 mmHg 94%
    07:00 +2°C° 0,1 mm 7 m/S 755 mmHg 95%
    08:00 +2°C° 0,1 mm 7 m/S 755 mmHg 95%
    09:00 +2°C° 0,1 mm 7 m/S 755 mmHg 96%
    10:00 +3°C° 0,1 mm 7 m/S 755 mmHg 96%
    11:00 +3°C° 0,1 mm 6 m/S 755 mmHg 96%
    12:00 +4°C° 0,1 mm 6 m/S 755 mmHg 97%
    13:00 +5°C° 0,1 mm 5 m/S 755 mmHg 97%
    14:00 +5°C° 0,1 mm 5 m/S 755 mmHg 97%
    15:00 +5°C° 0,1 mm 4 m/S 755 mmHg 97%
    16:00 +4°C° 0 mm 4 m/S 755 mmHg 97%
    17:00 +4°C° 0 mm 4 m/S 755 mmHg 96%
    18:00 +3°C° 0 mm 3 m/S 754 mmHg 96%
    19:00 +3°C° 0 mm 3 m/S 755 mmHg 96%
    20:00 +4°C° 0 mm 2 m/S 755 mmHg 96%
    21:00 +4°C° 0 mm 2 m/S 755 mmHg 96%
    22:00 +4°C° 0 mm 2 m/S 755 mmHg 96%
    23:00 +5°C° 0 mm 1 m/S 754 mmHg 95%
    Mehr zeigen